{"data":{"norad_id":67866,"intl_designator":"2026-034S","name":"STARLINK-36780","alt_names":[],"object_type":"PAYLOAD","status":"ACTIVE","operator":null,"country":"US","launch_date":"2026-02-20","launch_site_code":"AFETR","launch_vehicle":null,"mission":null,"orbit_class":"UNKNOWN","rcs_meters":null,"size_class":null,"mass_kg":null,"dimensions":null,"purposes":["comms"],"wikipedia_slug":null,"has_3d_model":false,"image_url":null,"decayed_at":null,"tle_current":{"epoch":"2026-05-24T21:40:13.922688Z","epoch_age_seconds":77466,"freshness":"FRESH","line1":"1 67866U 26034S   26144.90293892  .00016318  00000+0  56220-3 0  9993","line2":"2 67866  53.1589 210.2799 0001133  81.2393 278.8736 15.30180248 15706","mean_motion":15.30180248,"eccentricity":0.0001133,"inclination_deg":53.1589,"raan_deg":210.2799,"arg_perigee_deg":81.2393,"mean_anomaly_deg":278.8736,"bstar":0.0005622,"rev_number":1570,"period_min":94.106560444897,"perigee_km":474.49755449389,"apogee_km":476.05053743691,"semimajor_km":6853.4110459654,"source":"CELESTRAK","updated_at":"2026-05-25T13:38:21.728250Z"}}}